Flag for Germany Weather past 2 weeks in Garbsen, Lower Saxony, Germany

Now
59 °F

Scattered clouds.


Feels Like: 58 °F
Forecast: 48 / 60 °F
Wind: 6 mph from West

Location: Hannover

Current Time: Sep 23, 2014 at 7:00:27 PM

Latest Report: Sep 23, 2014 at 6:20 PM


Visibility: N/A

Pressure: 30.07 "Hg

Humidity: 63%

Dew point: 46 °F

Location of GarbsenLocation

Historic Weather in Garbsen — Graph

°F

Garbsen temperature yesterday

Maximum temperature yesterday: 59 °F (at 2:50 PM)
Minimum temperature yesterday: 50 °F (at 9:50 AM)
Average temperature yesterday: 54 °F

Past Weeks' High & Low Weather Summary

 TemperatureHumidityPressure
High75 °F (Sep 16, 3:20 PM)100% (Sep 10, 9:20 PM)30.21 "Hg (Sep 10, 9:20 PM)
Low43 °F (Sep 23, 4:50 AM)47% (Sep 17, 5:50 PM)29.86 "Hg (Sep 19, 5:50 AM)
Average60 °F84%30.03 "Hg
* Reported Sep 8 5:20 PM — Sep 23 5:50 PM, Garbsen, Weather by CustomWeather, © 2014

Note: Actual official high and low records may vary slightly from our data, if they occured in-between our weather recording intervals... More about our weather records

Advertising

Garbsen weather history for previous 24 hours

 ConditionsComfort  
Time TempWeatherWind HumidityBarometerVisibility
5:50 PM
Sep 23
59 °FScattered clouds.6 mph63%30.07 "HgN/A
5:20 PM61 °FScattered clouds.8 mph55%30.07 "HgN/A
4:50 PM59 °FScattered clouds.6 mph63%30.07 "HgN/A
4:20 PM59 °FScattered clouds.7 mph59%30.09 "HgN/A
3:50 PM59 °FPartly sunny.10 mph63%30.09 "HgN/A
3:20 PM59 °FScattered clouds.7 mph59%30.09 "HgN/A
2:50 PM61 °FScattered clouds.6 mph55%30.09 "HgN/A
2:20 PM61 °FScattered clouds.7 mph55%30.12 "HgN/A
1:50 PM59 °FScattered clouds.6 mph55%30.12 "HgN/A
1:20 PM61 °FScattered clouds.7 mph55%30.12 "HgN/A
12:20 PM57 °FPassing clouds.7 mph59%30.12 "HgN/A
11:50 AM55 °FPassing clouds.7 mph63%30.15 "HgN/A
11:20 AM55 °FPassing clouds.5 mph59%30.12 "HgN/A
10:50 AM55 °FScattered clouds.5 mph72%30.15 "HgN/A
10:20 AM52 °FPassing clouds.6 mph82%30.15 "HgN/A
9:50 AM50 °FPassing clouds.7 mph88%30.15 "HgN/A
9:20 AM50 °FPartly sunny.8 mph88%30.12 "HgN/A
8:50 AM48 °FPartly sunny.6 mph94%30.12 "HgN/A
8:20 AM46 °FScattered clouds.3 mph93%30.12 "HgN/A
7:50 AM43 °FClear.3 mph93%30.12 "Hg10 mi
7:20 AM43 °FClear.6 mph93%30.12 "Hg10 mi
6:50 AM43 °FClear.5 mph93%30.12 "Hg10 mi
6:20 AM43 °FClear.5 mph93%30.09 "Hg10 mi
5:50 AM43 °FClear.6 mph93%30.09 "Hg10 mi
5:20 AM43 °FClear.6 mph93%30.09 "Hg10 mi
4:50 AM43 °FClear.7 mph93%30.09 "Hg10 mi
4:20 AM45 °FClear.7 mph87%30.09 "Hg10 mi
3:50 AM46 °FClear.6 mph87%30.09 "Hg10 mi
3:20 AM46 °FPassing clouds.6 mph93%30.09 "HgN/A
2:50 AM46 °FPassing clouds.7 mph93%30.09 "HgN/A
2:20 AM48 °FPassing clouds.6 mph94%30.09 "HgN/A
1:50 AM50 °FPassing clouds.5 mph88%30.09 "HgN/A
1:20 AM50 °FPassing clouds.6 mph88%30.09 "HgN/A
12:50 AM50 °FPassing clouds.7 mph88%30.09 "HgN/A
12:20 AM48 °FPassing clouds.3 mph87%30.09 "HgN/A
11:50 PM
Sep 22
50 °FPassing clouds.7 mph82%30.07 "HgN/A
11:20 PM50 °FPassing clouds.8 mph82%30.07 "HgN/A
10:50 PM50 °FPassing clouds.8 mph82%30.07 "HgN/A
10:20 PM52 °FPassing clouds.10 mph77%30.07 "HgN/A
9:50 PM54 °FPassing clouds.12 mph77%30.07 "HgN/A
9:20 PM54 °FPassing clouds.8 mph77%30.07 "HgN/A
8:50 PM54 °FPassing clouds.8 mph77%30.04 "HgN/A
8:20 PM55 °FPassing clouds.10 mph72%30.04 "HgN/A
7:50 PM55 °FPartly sunny.14 mph67%30.04 "HgN/A
7:20 PM55 °FPartly sunny.12 mph67%30.04 "HgN/A
Weather by CustomWeather, © 2014

See weather overviewHow to use our weather pages